[[{"header":{"parameterUnit":"m.s-1","parameterCategory":1,"la1":30.2991,"la2":30.254,"lo1":-89.0895,"lo2":-89.0444,"dy":0.0017,"dx":0.0017,"nx":28,"ny":28,"refTime":"2025-01-28T03:00:00:Z","depth":0,"parameterNumber":2,"parameterNumberName":"U-component_of_WINDS"},"data":[0,0,0,0,0,0,0,0,0,0,0,0,0,0,0,0,0,0,0,0,0,0,0,0,0,0,0,0,0,0,0,0,0,0,0,0,0,0,0,0,0,0,0,0,0,0,0,0,0,0,0,0,0,0,0,0,0,0,-0.8287,-0.8286,0,-0.8189,-0.8188,-0.8187,-0.8113,-0.8112,-0.8111,-0.8111,-0.801,-0.8008,-0.8006,0,0,0,0,0,0,0,0,0,0,0,0,0,-0.841,-0.8408,-0.8287,-0.8285,-0.8284,-0.8189,-0.8188,-0.8187,-0.8113,-0.8112,-0.8111,-0.811,-0.801,-0.8008,-0.8005,0,0,0,0,0,0,0,0,0,0,0,0,0,-0.8339,-0.8407,-0.8287,-0.8236,-0.8231,-0.8189,-0.8188,-0.8186,-0.8113,-0.8112,-0.8111,-0.811,-0.8011,-0.8008,-0.8005,-0.8006,0,0,-0.7996,-0.7994,0,0,0,0,0,0,0,0,-0.8343,-0.8334,-0.8245,-0.824,-0.8233,-0.8162,-0.8194,-0.8126,-0.8113,-0.8158,-0.8111,-0.811,-0.8061,-0.8054,-0.8038,-0.8002,-0.7997,-0.7995,-0.7993,-0.7992,-0.7991,0,0,0,0,0,0,0,-0.8348,-0.8338,-0.8248,-0.8244,-0.8237,-0.8218,-0.8207,-0.8181,-0.8116,-0.8154,-0.8148,-0.8138,-0.8058,-0.8041,-0.8035,-0.7996,-0.7995,-0.7993,-0.7991,-0.799,-0.7957,-0.7958,0,0,0,0,0,0,-0.8361,-0.8342,-0.8251,-0.8245,-0.8287,-0.8217,-0.8204,-0.8186,-0.8116,-0.8105,-0.8139,-0.8135,-0.8047,-0.8039,-0.8031,-0.8029,-0.7992,-0.7989,-0.7988,-0.7956,-0.7958,-0.7959,0,0,0,0,0,0,-0.8363,-0.8353,-0.8255,-0.8292,-0.8278,-0.8216,-0.8196,-0.8185,-0.8168,-0.8105,-0.8093,-0.8133,-0.8046,-0.8035,-0.8013,-0.8024,-0.7988,-0.7985,-0.7955,-0.7957,-0.7958,-0.8024,0,0,0,0,0,0,-0.8367,-0.8355,-0.8354,-0.8293,-0.8277,-0.8239,-0.8196,-0.8183,-0.8163,-0.8156,-0.8097,-0.8086,-0.8044,-0.8019,-0.801,-0.8019,-0.7983,-0.7954,-0.7956,-0.7958,-0.8021,-0.8028,-0.8034,0,0,0,0,0,-0.8372,-0.8376,-0.8355,-0.8344,-0.8275,-0.824,-0.8231,-0.8183,-0.8164,-0.8163,-0.8123,-0.8088,-0.8025,-0.8017,-0.8007,-0.8015,-0.7953,-0.7955,-0.7958,-0.8018,-0.8027,-0.8034,0,0,0,0,0,0,-0.844,-0.8367,-0.8342,-0.8327,-0.829,-0.8228,-0.8225,-0.8193,-0.8161,-0.8156,-0.8098,-0.8085,-0.807,-0.804,-0.8033,-0.8014,-0.7984,-0.7985,-0.8034,-0.8041,-0.8048,-0.8055,-0.798,0,0,0,0,0,-0.8453,-0.8431,-0.8368,-0.8361,-0.8344,-0.8288,-0.8271,-0.8237,-0.8197,-0.8181,-0.8139,-0.8101,-0.8073,-0.8055,-0.8026,-0.8016,-0.8003,-0.8017,-0.8024,-0.803,-0.8031,-0.8025,-0.8031,-0.7966,-0.7966,-0.7966,0,0,-0.848,-0.8437,-0.8427,-0.8373,-0.8341,-0.832,-0.8275,-0.8254,-0.8238,-0.8177,-0.8155,-0.8123,-0.8077,-0.8062,-0.8053,-0.8037,-0.8046,-0.8033,-0.8038,-0.8035,-0.8028,-0.8035,-0.804,-0.7968,-0.7967,-0.7967,0,0,-0.8518,-0.8483,-0.8474,-0.8443,-0.8395,-0.8358,-0.8356,-0.8299,-0.8276,-0.8252,-0.8207,-0.8187,-0.8139,-0.8108,-0.8087,-0.8116,-0.8082,-0.8108,-0.8142,-0.8137,-0.8142,-0.8147,-0.8158,-0.8163,-0.8109,-0.8109,-0.8109,0,-0.8557,-0.8523,-0.8473,-0.8455,-0.8434,-0.8379,-0.8369,-0.8342,-0.8287,-0.8273,-0.8255,-0.8196,-0.816,-0.8138,-0.8146,-0.813,-0.8126,-0.8114,-0.8146,-0.8149,-0.8153,-0.8163,-0.8167,-0.8112,-0.8112,-0.8112,-0.8111,0,-0.8575,-0.8552,-0.855,-0.85,-0.8478,-0.8464,-0.8412,-0.8396,-0.8365,-0.833,-0.8308,-0.8264,-0.8226,-0.8218,-0.8186,-0.8192,-0.8183,-0.8157,-0.8126,-0.8163,-0.8172,-0.8175,-0.8117,-0.8116,-0.8115,-0.8114,0,0,-0.8652,-0.8575,-0.8575,-0.8552,-0.8496,-0.8478,-0.8463,-0.8426,-0.8414,-0.8378,-0.8364,-0.8325,-0.8301,-0.8277,-0.8242,-0.8237,-0.8265,-0.8211,-0.8209,-0.8224,-0.827,-0.8291,-0.8296,-0.8243,-0.8243,-0.8244,-0.8274,0,-0.8682,-0.8652,-0.8607,-0.8591,-0.857,-0.8519,-0.8506,-0.847,-0.8438,-0.8416,-0.8379,-0.8354,-0.8323,-0.8308,-0.8302,-0.8263,-0.8274,-0.826,-0.823,-0.8229,-0.8244,-0.83,-0.8322,-0.8353,-0.8277,-0.8277,-0.8278,0,-0.8713,-0.8681,-0.8664,-0.8612,-0.8601,-0.859,-0.8554,-0.8533,-0.8492,-0.8469,-0.8443,-0.8405,-0.8387,-0.8359,-0.8334,-0.8326,-0.8311,-0.829,-0.829,-0.8286,-0.8256,-0.8299,-0.8361,-0.8366,-0.8283,-0.8282,-0.8282,0,-0.8773,-0.8726,-0.871,-0.8692,-0.8629,-0.8623,-0.8597,-0.8555,-0.8536,-0.8504,-0.8492,-0.8458,-0.844,-0.8414,-0.8369,-0.8353,-0.8349,-0.8317,-0.833,-0.8331,-0.8331,-0.8332,-0.8394,-0.8321,-0.8321,-0.8321,-0.8321,0,-0.8811,-0.8803,-0.8736,-0.8726,-0.8716,-0.8665,-0.8656,-0.8625,-0.8589,-0.8572,-0.8526,-0.8511,-0.8452,-0.8431,-0.8396,-0.8381,-0.8372,-0.8354,-0.8344,-0.8358,-0.8361,-0.8348,-0.8345,-0.8322,-0.8322,-0.8322,-0.8321,0,-0.8876,-0.8831,-0.881,-0.8754,-0.8739,-0.8735,-0.8686,-0.8675,-0.8641,-0.8621,-0.8613,-0.8559,-0.8532,-0.8484,-0.8443,-0.842,-0.8412,-0.8396,-0.8427,-0.8421,-0.8437,-0.8436,-0.8492,-0.8498,-0.8421,-0.8422,-0.8423,0,-0.8904,-0.8897,-0.884,-0.8827,-0.8802,-0.878,-0.8762,-0.8711,-0.8693,-0.8647,-0.8642,-0.8612,-0.8585,-0.8545,-0.8501,-0.847,-0.8453,-0.8475,-0.8448,-0.8463,-0.8455,-0.8456,-0.8456,-0.8482,-0.8483,-0.8484,-0.8484,0,-0.896,-0.8938,-0.8912,-0.888,-0.8859,-0.8831,-0.88,-0.8791,-0.8734,-0.8717,-0.8689,-0.8668,-0.8628,-0.8598,-0.8562,-0.8534,-0.85,-0.8493,-0.8495,-0.8509,-0.8527,-0.8519,-0.8444,-0.8492,-0.8491,-0.8491,-0.849,-0.849,-0.9007,-0.8999,-0.8959,-0.8932,-0.8904,-0.8877,-0.8865,-0.8829,-0.8805,-0.8769,-0.874,-0.8716,-0.8676,-0.8623,-0.8599,-0.8579,-0.8562,-0.8564,-0.8565,-0.8566,-0.8572,-0.8531,-0.8571,-0.8571,-0.8571,-0.8571,-0.857,0,-0.9061,-0.9033,-0.9009,-0.8969,-0.8949,-0.8919,-0.8884,-0.8869,-0.8848,-0.8814,-0.8789,-0.8758,-0.873,-0.8686,-0.8654,-0.8647,-0.863,-0.864,-0.8641,-0.8635,-0.8588,-0.859,-0.8654,-0.8654,-0.8654,-0.8654,-0.8654,-0.8654,-0.9087,-0.9072,-0.9046,-0.9017,-0.8988,-0.8964,-0.8947,-0.8922,-0.8895,-0.8863,-0.884,-0.8811,-0.8774,-0.8739,-0.8713,-0.87,-0.8691,-0.8707,-0.869,-0.8646,-0.8638,-0.8631,-0.8633,-0.8705,-0.8705,-0.8738,-0.8739,-0.8739]},{"header":{"parameterUnit":"m.s-1","parameterCategory":1,"la1":30.2991,"la2":30.254,"lo1":-89.0895,"lo2":-89.0444,"dy":0.0017,"dx":0.0017,"nx":28,"ny":28,"refTime":"2025-01-28T03:00:00:Z","depth":0,"parameterNumber":3,"parameterNumberName":"V-component_of_WINDS"},"data":[0,0,0,0,0,0,0,0,0,0,0,0,0,0,0,0,0,0,0,0,0,0,0,0,0,0,0,0,0,0,0,0,0,0,0,0,0,0,0,0,0,0,0,0,0,0,0,0,0,0,0,0,0,0,0,0,0,0,1.239,1.239,0,1.2342,1.2342,1.2341,1.2341,1.2342,1.2342,1.2343,1.2291,1.2289,1.2287,0,0,0,0,0,0,0,0,0,0,0,0,0,1.2481,1.248,1.239,1.239,1.2389,1.2342,1.2342,1.2341,1.2341,1.2342,1.2342,1.2343,1.2292,1.229,1.2287,0,0,0,0,0,0,0,0,0,0,0,0,0,1.2438,1.2479,1.2391,1.2384,1.2382,1.2343,1.2342,1.2341,1.2341,1.2342,1.2343,1.2343,1.2293,1.229,1.2287,1.225,0,0,1.2278,1.2277,0,0,0,0,0,0,0,0,1.2441,1.2435,1.2385,1.2384,1.2383,1.2349,1.2355,1.231,1.234,1.2356,1.2343,1.2344,1.2309,1.2305,1.2294,1.2248,1.2246,1.2278,1.2276,1.2275,1.2274,0,0,0,0,0,0,0,1.2444,1.2437,1.2371,1.2384,1.2383,1.2383,1.2377,1.2346,1.2328,1.2355,1.2355,1.2349,1.2309,1.2297,1.2293,1.2245,1.2278,1.2275,1.2273,1.2272,1.2167,1.2166,0,0,0,0,0,0,1.2448,1.2439,1.2373,1.237,1.2415,1.238,1.2374,1.2359,1.2329,1.2325,1.2349,1.235,1.2301,1.2296,1.2291,1.2247,1.2275,1.2272,1.227,1.2168,1.2167,1.2166,0,0,0,0,0,0,1.245,1.2442,1.2375,1.2405,1.2396,1.2378,1.236,1.2357,1.2345,1.2324,1.232,1.234,1.2302,1.2295,1.2261,1.2245,1.2271,1.2268,1.2169,1.2168,1.2166,1.2157,0,0,0,0,0,0,1.2453,1.2443,1.2429,1.2404,1.2394,1.2345,1.2359,1.2356,1.234,1.2341,1.2314,1.2311,1.2302,1.2265,1.2258,1.2241,1.2266,1.2171,1.2169,1.2167,1.2159,1.2155,1.2152,0,0,0,0,0,1.2456,1.2427,1.2428,1.242,1.2376,1.2345,1.2339,1.233,1.2339,1.2325,1.2311,1.2312,1.2248,1.2262,1.2253,1.2236,1.2172,1.2169,1.2167,1.216,1.2156,1.2153,0,0,0,0,0,0,1.2449,1.2424,1.2424,1.2387,1.2368,1.2345,1.2326,1.2326,1.2303,1.2305,1.2294,1.2288,1.2254,1.2241,1.2257,1.2199,1.2211,1.2207,1.2208,1.2204,1.2201,1.2205,1.2263,0,0,0,0,0,1.2444,1.242,1.2399,1.2368,1.2359,1.2344,1.233,1.2325,1.2305,1.2296,1.228,1.226,1.2235,1.2219,1.2195,1.2157,1.2152,1.2141,1.2138,1.2136,1.2132,1.2112,1.2107,1.2158,1.2158,1.2158,0,0,1.2431,1.2414,1.24,1.2367,1.2351,1.2327,1.2337,1.2311,1.2293,1.2292,1.2259,1.2247,1.2223,1.2187,1.217,1.2176,1.2117,1.2133,1.2131,1.2128,1.2109,1.2104,1.21,1.2157,1.2157,1.2157,0,0,1.2396,1.2381,1.2354,1.2339,1.2317,1.2307,1.2301,1.2278,1.227,1.2237,1.2236,1.2215,1.2172,1.2156,1.2142,1.2104,1.2103,1.2096,1.208,1.206,1.2056,1.2052,1.2039,1.2034,1.2093,1.2093,1.2093,0,1.2383,1.2347,1.234,1.2314,1.23,1.2299,1.2272,1.2258,1.2228,1.2218,1.2225,1.2173,1.2157,1.2117,1.2108,1.2097,1.2089,1.2098,1.2057,1.2054,1.205,1.2037,1.2032,1.2092,1.2092,1.2092,1.2092,0,1.2333,1.2308,1.2289,1.2262,1.2245,1.2219,1.2207,1.2192,1.2189,1.2179,1.2146,1.2127,1.21,1.2091,1.2087,1.2051,1.2055,1.206,1.2071,1.2045,1.2032,1.2027,1.2091,1.2091,1.2091,1.2092,0,0,1.229,1.2261,1.2254,1.2242,1.2218,1.2199,1.2173,1.2147,1.2134,1.2114,1.2092,1.2058,1.2062,1.2047,1.2041,1.2024,1.1996,1.2031,1.2031,1.2025,1.1955,1.1952,1.1946,1.1996,1.1995,1.1994,1.1957,0,1.2252,1.2207,1.22,1.216,1.2137,1.2138,1.2115,1.2098,1.2089,1.2068,1.2057,1.2033,1.2041,1.2032,1.2015,1.2003,1.1981,1.2005,1.1975,1.1974,1.198,1.1939,1.1935,1.1901,1.1952,1.1951,1.1951,0,1.2202,1.2182,1.2139,1.212,1.211,1.209,1.2067,1.2048,1.2028,1.2023,1.2007,1.2004,1.1977,1.1991,1.1954,1.1971,1.1958,1.195,1.1949,1.1945,1.196,1.1934,1.189,1.1885,1.1943,1.1944,1.1944,0,1.2175,1.2138,1.2108,1.2098,1.2074,1.206,1.205,1.2032,1.2017,1.1997,1.1988,1.1965,1.1952,1.1934,1.1925,1.1936,1.1889,1.1902,1.1884,1.1884,1.1873,1.1873,1.1825,1.1865,1.1866,1.1866,1.1866,0,1.2133,1.2107,1.2096,1.2077,1.2048,1.2042,1.2013,1.2003,1.1988,1.1967,1.1966,1.1947,1.1937,1.1916,1.1909,1.188,1.1874,1.1869,1.1867,1.1869,1.1869,1.186,1.1862,1.1864,1.1865,1.1865,1.1865,0,1.2097,1.2089,1.2056,1.2038,1.2033,1.2012,1.1996,1.1978,1.197,1.1944,1.1938,1.1924,1.19,1.189,1.186,1.1856,1.1822,1.1822,1.1829,1.1828,1.181,1.1812,1.1754,1.1746,1.1792,1.1791,1.1791,0,1.2071,1.2051,1.2031,1.2018,1.2007,1.1986,1.1972,1.1965,1.1951,1.1929,1.1913,1.189,1.187,1.1832,1.1819,1.1796,1.1796,1.1777,1.1792,1.1795,1.1795,1.1797,1.1795,1.1774,1.1774,1.1773,1.1773,0,1.2025,1.2022,1.2002,1.1982,1.1965,1.1948,1.1932,1.1921,1.1912,1.1895,1.1871,1.1856,1.1827,1.1803,1.178,1.1769,1.1769,1.1769,1.1763,1.1764,1.1768,1.1766,1.1821,1.177,1.177,1.177,1.177,1.177,1.1993,1.1976,1.196,1.1938,1.1925,1.191,1.1893,1.1884,1.1864,1.184,1.1837,1.1811,1.1794,1.1764,1.1752,1.1732,1.1736,1.1728,1.1726,1.1724,1.1723,1.1773,1.1727,1.1727,1.1728,1.1728,1.1728,0,1.1947,1.1937,1.1917,1.1895,1.1878,1.1882,1.1864,1.1849,1.1827,1.1812,1.1793,1.1766,1.1744,1.173,1.1708,1.1694,1.1694,1.1689,1.1689,1.1687,1.172,1.1727,1.1689,1.1689,1.1689,1.1689,1.1689,1.1689,1.1921,1.1893,1.1888,1.1854,1.1844,1.182,1.1809,1.1796,1.1783,1.1754,1.1736,1.1728,1.1713,1.169,1.167,1.1666,1.1658,1.1652,1.1649,1.168,1.1684,1.1688,1.1694,1.1651,1.1651,1.1617,1.1617,1.1617]}]]